K8ZAS Weather Reports


time (UTC)temp
F
wind
direction
speed
knots
gust
knots
rain 1hr
in
rain 24hr
in
rain mn
in
humidity
%
barometer
mb
20260906223518 85 240 1.7 6.1 0.00 0.00 0.00 19 1011.5
20260906222517 86 232 1.7 5.2 0.00 0.00 0.00 19 1011.6
20260906221518 86 219 4.3 11.3 0.00 0.00 0.00 18 1011.7
20260906220518 86 205 3.5 9.6 0.00 0.00 0.00 18 1011.8
20260906215518 87 219 3.5 7.8 0.00 0.00 0.00 17 1011.8
20260906214516 87 206 4.3 11.3 0.00 0.00 0.00 16 1011.9
20260906213519 88 193 3.5 7.8 0.00 0.00 0.00 17 1011.9
20260906212519 88 217 4.3 7.8 0.00 0.00 0.00 17 1012.0
20260906211519 88 208 3.5 9.6 0.00 0.00 0.00 17 1012.1
20260906210517 88 211 3.5 7.8 0.00 0.00 0.00 17 1012.2
20260906205516 88 182 2.6 9.6 0.00 0.00 0.00 17 1012.3
20260906204541 88 219 3.5 8.7 0.00 0.00 0.00 17 1012.3
20260906203520 88 182 3.5 8.7 0.00 0.00 0.00 17 1012.3
20260906202517 89 212 4.3 9.6 0.00 0.00 0.00 17 1012.3
20260906201517 89 181 3.5 7.8 0.00 0.00 0.00 18 1012.5
20260906200517 89 173 3.5 10.4 0.00 0.00 0.00 18 1012.7
20260906195518 89 193 2.6 6.1 0.00 0.00 0.00 18 1012.9
20260906194518 88 208 3.5 7.8 0.00 0.00 0.00 18 1013.1
20260906193518 88 181 4.3 10.4 0.00 0.00 0.00 18 1013.3
20260906192518 88 158 4.3 8.7 0.00 0.00 0.00 18 1013.4
20260906191518 88 147 1.7 6.1 0.00 0.00 0.00 22 1013.8
20260906190518 86 50 1.7 7.0 0.00 0.00 0.00 22 1013.8
20260906185519 84 349 1.7 3.5 0.00 0.00 0.00 26 1014.1
20260906184520 83 11 1.7 6.1 0.00 0.00 0.00 27 1014.3
20260906183539 82 31 2.6 6.1 0.00 0.00 0.00 30 1014.6
20260906182536 82 14 1.7 5.2 0.00 0.00 0.00 28 1014.7
20260906181517 82 357 1.7 6.1 0.00 0.00 0.00 30 1015.1
20260906180519 82 25 1.7 5.2 0.00 0.00 0.00 29 1015.3
20260906175520 81 30 1.7 5.2 0.00 0.00 0.00 29 1015.5
20260906174520 80 25 1.7 4.3 0.00 0.00 0.00 29 1015.8
20260906173618 79 238 0.9 3.5 0.00 0.00 0.00 30 1016.0
20260906172557 79 293 0.9 4.3 0.00 0.00 0.00 30 1016.2
20260906171540 78 46 0.9 3.5 0.00 0.00 0.00 31 1016.4
20260906170517 76 335 1.7 5.2 0.00 0.00 0.00 32 1016.5
20260906165518 76 238 0.9 4.3 0.00 0.00 0.00 33 1016.7
20260906164518 75 337 1.7 4.3 0.00 0.00 0.00 33 1016.8
20260906163518 73 267 0.9 4.3 0.00 0.00 0.00 35 1017.0
20260906162538 72 224 0.9 3.5 0.00 0.00 0.00 36 1017.1
20260906161519 71 314 0.9 3.5 0.00 0.00 0.00 37 1017.2
20260906160519 70 262 1.7 5.2 0.00 0.00 0.00 38 1017.3
20260906155519 69 225 0.9 3.5 0.00 0.00 0.00 39 1017.3
20260906154517 68 237 0.9 3.5 0.00 0.00 0.00 40 1017.4
20260906153519 66 252 0.9 3.5 0.00 0.00 0.00 40 1017.3
20260906152519 65 226 1.7 5.2 0.00 0.00 0.00 41 1017.4
20260906151539 64 219 1.7 6.1 0.00 0.00 0.00 42 1017.6
20260906150517 63 244 0.9 3.5 0.00 0.00 0.00 45 1017.8
20260906145517 61 214 0.0 2.6 0.00 0.00 0.00 47 1017.9
20260906144523 58 250 0.9 3.5 0.00 0.00 0.00 49 1017.9
20260906143523 56 219 0.9 4.3 0.00 0.00 0.00 53 1018.1
20260906142544 54 237 0.0 2.6 0.00 0.00 0.00 56 1018.1
20260906141523 52 202 0.9 3.5 0.00 0.00 0.00 59 1018.3
20260906140524 51 0.0 0.0 0.00 0.00 0.00 62 1018.3
20260906135524 49 226 0.0 0.9 0.00 0.00 0.00 63 1018.3
20260906134545 48 226 0.9 2.6 0.00 0.00 0.00 64 1018.2
20260906133524 47 230 0.0 1.7 0.00 0.00 0.00 66 1018.2
20260906132524 47 0.0 0.0 0.00 0.00 0.00 68 1018.0
20260906131524 46 209 0.9 2.6 0.00 0.00 0.00 69 1017.9
20260906130525 46 217 0.0 0.9 0.00 0.00 0.00 70 1017.8
20260906125545 46 202 0.9 3.5 0.00 0.00 0.00 69 1017.9
20260906124525 46 208 0.0 1.7 0.00 0.00 0.00 70 1017.7
20260906123525 47 207 0.0 1.7 0.00 0.00 0.00 71 1017.7
20260906122546 48 197 0.0 1.7 0.00 0.00 0.00 66 1017.7
20260906121526 49 218 0.9 1.7 0.00 0.00 0.00 63 1017.8
20260906120526 49 235 0.0 1.7 0.00 0.00 0.00 63 1017.7
20260906115526 49 0.0 0.0 0.00 0.00 0.00 63 1017.7
20260906114527 49 235 0.0 1.7 0.00 0.00 0.00 63 1017.7
20260906113526 48 260 0.0 0.9 0.00 0.00 0.00 65 1017.7
20260906112527 47 282 0.0 1.7 0.00 0.00 0.00 67 1017.5
20260906111527 47 0.0 0.0 0.00 0.00 0.00 69 1017.5
20260906110527 47 0.0 0.0 0.00 0.00 0.00 69 1017.4
20260906105527 47 230 0.0 1.7 0.00 0.00 0.00 68 1017.3
20260906104528 48 198 0.0 1.7 0.00 0.00 0.00 69 1017.1
20260906103548 48 207 0.0 1.7 0.00 0.00 0.00 68 1017.1
20260906102528 48 0.0 0.0 0.00 0.00 0.00 66 1017.1
20260906101528 48 0.0 0.0 0.00 0.00 0.00 68 1017.0
20260906100528 50 210 0.9 2.6 0.00 0.00 0.00 65 1017.0
20260906095528 52 239 0.9 2.6 0.00 0.00 0.00 61 1016.8
20260906094528 53 227 0.0 1.7 0.00 0.00 0.00 63 1016.7
20260906093529 55 329 0.0 1.7 0.00 0.00 0.00 58 1016.5
20260906092529 56 0.0 0.0 0.00 0.00 0.00 52 1016.3
20260906091529 57 0.0 0.0 0.00 0.00 0.00 49 1016.2
20260906090529 58 0.0 0.0 0.00 0.00 0.00 46 1015.9
20260906085530 58 316 0.9 1.7 0.00 0.00 0.00 47 1015.8
20260906084529 58 332 0.9 2.6 0.00 0.00 0.00 49 1016.0
20260906083530 57 330 0.9 2.6 0.00 0.00 0.00 53 1016.1
20260906082530 55 0.0 0.0 0.00 0.00 0.00 56 1016.2
20260906081530 55 0.0 0.0 0.00 0.00 0.00 55 1016.3
20260906080551 53 0.0 0.0 0.00 0.00 0.00 64 1016.5
20260906075530 53 0.0 0.0 0.00 0.00 0.00 63 1016.5
20260906074515 54 0.0 0.0 0.00 0.00 0.00 61 1016.4
20260906073531 55 0.0 0.0 0.00 0.00 0.00 59 1016.3
20260906072532 56 0.0 0.0 0.00 0.00 0.00 57 1016.2
20260906071531 57 0.0 0.0 0.00 0.00 0.00 52 1016.0
20260906070531 58 0.0 0.0 0.00 0.00 0.00 49 1016.0
20260906065537 59 0.0 0.0 0.00 0.00 0.00 49 1016.0
20260906064517 60 88 0.0 0.9 0.00 0.00 0.00 47 1015.9
20260906063517 60 20 0.0 1.7 0.00 0.00 0.00 45 1015.9
20260906062517 61 339 0.0 0.9 0.00 0.00 0.00 43 1015.8
20260906061518 60 13 0.0 0.0 0.00 0.00 0.00 43 1015.7
20260906060538 60 353 0.9 3.5 0.00 0.00 0.00 46 1015.8
20260906055518 61 0.0 0.0 0.00 0.00 0.00 45 1015.6
20260906054518 62 0.0 0.0 0.00 0.00 0.00 43 1015.6
20260906053538 64 0.0 0.0 0.00 0.00 0.00 40 1015.5
20260906052518 64 240 0.0 1.7 0.00 0.00 0.00 36 1015.4
20260906051519 64 0.0 0.0 0.00 0.00 0.00 37 1015.5
20260906050519 65 0.0 0.0 0.00 0.00 0.00 36 1015.6
20260906045516 65 0.0 0.0 0.00 0.00 0.00 38 1015.6
20260906044516 65 0.0 0.0 0.00 0.00 0.00 38 1015.6
20260906043520 65 0.0 0.0 0.00 0.00 0.00 41 1015.6
20260906042518 65 0.0 0.0 0.00 0.00 0.00 41 1015.6
20260906041517 65 316 0.0 1.7 0.00 0.00 0.00 42 1015.6
20260906040518 67 224 0.0 2.6 0.00 0.00 0.00 40 1015.6
20260906035518 68 0.0 0.0 0.00 0.00 0.00 35 1015.3
20260906034518 68 0.0 0.0 0.00 0.00 0.00 34 1015.3
20260906033518 68 296 0.0 1.7 0.00 0.00 0.00 34 1015.4
20260906032518 67 333 0.0 1.7 0.00 0.00 0.00 37 1015.5
20260906031518 68 0.0 0.0 0.00 0.00 0.00 38 1015.4
20260906030519 69 0.0 0.0 0.00 0.00 0.00 39 1015.2
20260906025518 69 0.0 0.0 0.00 0.00 0.00 38 1015.0
20260906024519 71 0.0 0.0 0.00 0.00 0.00 38 1014.8
20260906023519 72 0.0 0.0 0.00 0.00 0.00 35 1014.6
20260906022519 73 0.0 0.0 0.00 0.00 0.00 34 1014.5
20260906021516 75 234 0.0 1.7 0.00 0.00 0.00 31 1014.3
20260906020519 76 0.0 0.0 0.00 0.00 0.00 29 1014.1
20260906015519 78 0.0 0.0 0.00 0.00 0.00 28 1014.1
20260906014517 80 0.0 0.0 0.00 0.00 0.00 25 1014.0
20260906013538 82 0.0 0.0 0.00 0.00 0.00 23 1014.0
20260906012517 83 0.0 0.0 0.00 0.00 0.00 22 1013.9
20260906011520 85 0.0 0.0 0.00 0.00 0.00 21 1013.9
20260906010518 85 230 0.0 1.7 0.00 0.00 0.00 21 1013.9
20260906005518 86 256 0.9 3.5 0.00 0.00 0.00 20 1013.8
20260906004518 87 240 1.7 4.3 0.00 0.00 0.00 19 1013.8
20260906003518 87 241 0.9 3.5 0.00 0.00 0.00 19 1013.7
20260906002558 88 223 1.7 7.0 0.00 0.00 0.00 18 1013.6
20260906001539 88 222 1.7 4.3 0.00 0.00 0.00 19 1013.6
20260906000519 89 245 2.6 6.1 0.00 0.00 0.00 19 1013.6
20260905235517 90 249 3.5 7.0 0.00 0.00 0.00 18 1013.6
20260905234516 91 228 1.7 6.1 0.00 0.00 0.00 18 1013.7
20260905233520 90 229 0.9 3.5 0.00 0.00 0.00 18 1013.6
20260905232519 90 234 2.6 7.0 0.00 0.00 0.00 18 1013.6
20260905231517 90 224 2.6 7.0 0.00 0.00 0.00 18 1013.6
20260905230517 90 210 2.6 7.8 0.00 0.00 0.00 18 1013.7
20260905225517 90 206 3.5 8.7 0.00 0.00 0.00 19 1013.6
20260905224540 90 196 3.5 7.8 0.00 0.00 0.00 19 1013.7